FENGYUN 1C DEB, 29971

Orbit data source: Space-Track

FENGYUN 1C DEB, 29971 is space debris in SSO originally from a launch on Mon, 10 May 1999 UTC launched from the Taiyaun Space Center, China (TSC). Fengyun 1C debris stems from the Chinese weather satellite Fengyun-1C, which was intentionally destroyed by a Chinese anti-satellite missile in 2007. This event dramatically increased the amount of space debris, with thousands of trackable fragments posing hazards to satellites and human spaceflight. The Fengyun 1C debris cloud has become a focal point in discussions about space sustainability and the need for international regulations to prevent the creation of new debris.

Loading next visibility...
Identifier
29971, 1999-025KV
Orbit
SSO
Country
Flag of CNCN / PRC
Related business
Manufacturer
Unknown
Mission
Spacecraft
Bus & Motor
Unknown
Mass
Unknown
Launch date (UTC)
1999-05-10 (26 years ago)
Launch vehicle
Unknown
Launch site
Taiyaun Space Center, China (TSC)
Object type
Payload
Rocket body
Debris
Shape & HBR
Unknown shape, 0.1 m
Radar Cross Section
Small (<0.1 m²)

Expand to show TLE details & history
Last TLE update: 9 hours ago

TLE from 9 hours ago
0 FENGYUN 1C DEB
1 29971U 99025KV  25301.56541693  .00002130  00000-0  10596-2 0  9992
2 29971  98.6894 342.3110 0022484 299.8864 226.0793 14.17953337966995
Epoch: 2025-10-28T13:34Z
TLE epoch observation values (Epoch: 2025-10-28T13:34:12.022Z)
Latitude
14.0227°
Longitude
-76.21423°
Altitude
845.729 km
Speed
7.425 km/s
True Right ascension
10h 57m 56s
True Declination
13° 56' 35"
Sunlit
Object was in daylight at epoch
Visualization orbit readout
Latitude
Unknown
Longitude
Unknown
Altitude
Unknown
Speed
Unknown
Apparent Right ascension
Unknown
Apparent Declination
Unknown
Sunlit
N/A
Visualization observer readout
Local Sidereal Time
17:53:21
Azimuth
Unknown
Elevation
Unknown
Doppler factor
Unknown
Orbital elements
Apogee altitude
845.649 km
Perigee altitude
813.238 km
Semi-major axis
7,207.58 km
Eccentricity
0.00225
Inclination
98.6894°
RAAN
342.311°
Arg. of periapsis
299.8864°
True anomaly
225.89408°
Mean anomaly
226.0793°
Eccentric anomaly
225.98665°
Mean motion
3.54698 °/min
Orbital period
101.49 mins
BSTAR
0.0010596
Loading maneuver chart data...
Computing Atmospheric mass density...

Documentation

Showing up to 5 results
|